Regional Weather Roundup
Issued by NWS Newport/Morehead, NC

Current Version | Previous Version | Graphics & Text | Print | Product List | Glossary Off
Versions: 1 2 3 4 5 6 7 8 9 10 11 12 13 14 15 16 17 18 19 20 21 22 23 24 25 26 27 28 29 30 31 32 33 34 35 36 37 38 39 40 41 42 43 44 45 46 47 48 49 50

000
ASUS42 KMHX 052024
RWRMHX
WEATHER ROUNDUP FOR EASTERN NORTH CAROLINA
NATIONAL WEATHER SERVICE NEWPORT/MOREHEAD CITY NC
400 PM EDT TUE MAY 05 2015

NOTE: "FAIR" INDICATES FEW OR NO CLOUDS BELOW 12,000 FEET
WITH NO SIGNIFICANT WEATHER AND/OR OBSTRUCTIONS TO VISIBILITY

NCZ015>017-031-032-045>047-102-103-052100-
NORTH COAST

CITY           SKY/WX    TMP DP  RH WIND       PRES   REMARKS
EDENTON        MOSUNNY   80  50  35 S13       30.28S
ELIZABETH CITY MOSUNNY   79  51  37 S13       30.28F
KITTY HAWK     PTCLDY    76  48  36 S12G20    30.29S
MANTEO         MOSUNNY   74  55  52 S16       30.31S

$$

NCZ045>047-081-094-103-104-052100-
CENTRAL COAST

CITY           SKY/WX    TMP DP  RH WIND       PRES   REMARKS
FRISCO         MOSUNNY   73  56  54 S9        30.33F
SWANQUARTER      N/A     77 N/A N/A SW12      30.27F

$$

NCZ095-097-098-100-101-052100-
SOUTHERN COAST

CITY           SKY/WX    TMP DP  RH WIND       PRES   REMARKS
BEAUFORT       MOSUNNY   75  52  44 SE12      30.31F
CEDAR ISLAND     N/A     77 N/A N/A SE13      30.36S
JACKSONVILLE   SUNNY     76  50  40 SE13      30.30F
PINEY ISLAND   CLEAR    N/A N/A N/A SE13      30.31F
WILMINGTON     MOSUNNY   75  53  46 E7G20     30.31F


$$

NCZ011>013-027>030-043-044-078>080-089-090>093-098-052100-
COASTAL PLAIN

CITY           SKY/WX    TMP DP  RH WIND       PRES   REMARKS
AHOSKIE        SUNNY     80  53  39 S3        30.26F
CLINTON        SUNNY     81  55  41 E6        30.28F
ELIZABETHTOWN  SUNNY     81  49  33 E7        30.27F
GOLDSBORO      MOSUNNY   81  53  36 SE2       30.25F
GREENVILLE     SUNNY     82  50  32 S9        30.28F
HAVELOCK       SUNNY     75  50  41 SE10      30.31F
KENANSVILLE    SUNNY     80  47  31 SE9       30.30F
KINSTON        MOSUNNY   82  48  30 S12       30.28F
NEW BERN       SUNNY     80  48  32 S13G18    30.31F
RICHLANDS      SUNNY     79  46  31 SE10G16   30.30F
ROCKY MOUNT    SUNNY     82  54  37 S9G17     30.27F
WASHINGTON     SUNNY     81  50  33 SE7       30.28F
WHITEVILLE     PTSUNNY   80  55  41 E6        30.27F

$$

AMZ130-135-150-152-154-156-158-170-250-252-270-ANZ085-086-088-633-658-670-052100-
MARINE OBSERVATIONS

STATION/POSITION TIME  TEMP    WIND        PRES    WAVE   SWELL
                       AIR SEA DIR/SP/G            HT/PER HT/PER
                 (UTC) (F)     (DEG/KT/KT) (MB)    (FT/S) (FT/S)
CHESAPEAKE LIGHT 2000   67     170/ 24/ 25 1024.5
64 E VA BEACH    1950   63 59  200/ 10/ 12 1025.6    2/11   2/11
DUCK             2000   75 56  190/ 16/ 22 1024.4
2 E DUCK         1911      60                N/A     2/11
OREGON INLET     2000   72 71  180/ 14/ 18 1026.2
13E OREGON INLT  2000      66                N/A     2/11   2/11
HATTERAS CG      1900   74 67  160/  8/ 10 1027.1
DIAMOND BUOY     1950   73 77  150/ 12/ 16 1026.9    3/ 8   2/ 8
CAPE LOOKOUT     2000   71     130/  7/  7 1026.1
BEAUFORT LAB     1900   72 67  190/  9/ 12 1026.6
27 SE WRIGHTSVLE 2000   69 71  140/ 10/ 12   N/A
5 SE WRIGHTSVLE  NOT AVBL
225 S CAPE HAT   1950   70 70  100/ 17/ 19 1025.7    6/ 7   2/ 9
41 SE CHARLESTON 1950   72 73   50/ 14/ 17 1024.7    3/ 6   2/ 9

$$



USA.gov is the U.S. government's official web portal to all federal, state and local government web resources and services.